Location: *
(43.0167°S, 179.9000°E)
Time: 12:08:35
(UTC+00:00)

BREEZE-M DEB (TANK) - Pass Details

Date: 12 August 2024
Orbit: 306 x 13934 km, 49.6° (Epoch: 11 September)

Event Time Altitude Azimuth Distance (km) Brightness Sun altitude
Exits shadow 17:21:08 25° 228° (SW) 1,481 4.3 -18.0°
Maximum altitude 17:23:41 51° 161° (SSE) 1,299 4.5 -17.5°
Drops below altitude 10° 17:37:00 10° 86° (E) 6,317 9.4 -15.1°
Sets 17:46:34 0° 81° (E) 9,608 11.0 -13.3°
